EW6140 Weather Reports


time (UTC)temp
C
wind
direction
speed
KPH
gust
KPH
rain 1hr
cm
rain 24hr
cm
rain mn
cm
humidity
%
barometer
mb
20260510194058 13 0 0.0 6.4 0.00 0.00 0.00 51 1015.2
20260510193555 13 343 0.0 6.4 0.00 0.00 0.00 49 1015.3
20260510193119 13 352 0.0 3.2 0.00 0.00 0.00 49 1015.4
20260510192558 13 0 0.0 6.4 0.00 0.00 0.00 48 1015.3
20260510192055 14 0 1.6 6.4 0.00 0.00 0.00 50 1015.3
20260510191724 13 360 0.0 4.8 0.00 0.00 0.00 54 1015.2
20260510191059 13 0 0.0 4.8 0.00 0.00 0.00 52 1015.3
20260510190554 14 0 0.0 8.0 0.00 0.00 0.00 49 1015.2
20260510185555 13 0 0.0 4.8 0.00 0.00 0.00 56 1015.2
20260510185054 12 0 0.0 6.4 0.00 0.00 0.00 53 1015.3
20260510184651 12 305 1.6 6.4 0.00 0.00 0.00 54 1015.1
20260510184054 12 28 0.0 4.8 0.00 0.00 0.00 52 1015.2
20260510183559 12 0 0.0 12.9 0.00 0.00 0.00 51 1015.2
20260510183236 12 0 0.0 12.9 0.00 0.00 0.00 53 1015.1
20260510183100 12 0 0.0 12.9 0.00 0.00 0.00 53 1015.1
20260510182559 13 0 0.0 12.9 0.00 0.00 0.00 51 1015.0
20260510182058 13 0 0.0 6.4 0.00 0.00 0.00 51 1014.9
20260510181609 13 0 1.6 6.4 0.00 0.00 0.00 53 1015.0
20260510181058 13 0 0.0 6.4 0.00 0.00 0.00 57 1014.9
20260510180558 13 0 0.0 6.4 0.00 0.00 0.00 51 1014.9
20260510180103 13 0 0.0 4.8 0.00 0.00 0.00 51 1014.7
20260510175555 13 0 0.0 8.0 0.00 0.00 0.00 49 1014.7
20260510175055 13 0 0.0 8.0 0.00 0.00 0.00 48 1014.6
20260510174607 13 0 0.0 14.5 0.00 0.00 0.00 49 1014.6
20260510174055 13 0 0.0 14.5 0.00 0.00 0.00 51 1014.5
20260510173554 13 0 0.0 14.5 0.00 0.00 0.00 48 1014.5
20260510173104 13 0 0.0 4.8 0.00 0.00 0.00 48 1014.5
20260510172557 14 0 0.0 6.4 0.00 0.00 0.00 49 1014.6
20260510172334 14 0 0.0 6.4 0.00 0.00 0.00 48 1014.5
20260510171054 13 0 0.0 8.0 0.00 0.00 0.00 52 1014.4
20260510170556 13 0 0.0 4.8 0.00 0.00 0.00 48 1014.3
20260510170100 13 0 0.0 4.8 0.00 0.00 0.00 47 1014.4
20260510165600 13 0 0.0 4.8 0.00 0.00 0.00 50 1014.4
20260510165057 13 194 0.0 1.6 0.00 0.00 0.00 49 1014.3
20260510164609 13 0 0.0 6.4 0.00 0.00 0.00 49 1014.3
20260510164057 13 0 0.0 6.4 0.00 0.00 0.00 47 1014.3
20260510163601 13 0 0.0 6.4 0.00 0.00 0.00 47 1014.3
20260510163310 13 0 0.0 1.6 0.00 0.00 0.00 45 1014.3
20260510163102 13 0 0.0 1.6 0.00 0.00 0.00 45 1014.3
20260510162557 12 0 0.0 12.9 0.00 0.00 0.00 50 1014.2
20260510162056 12 0 0.0 12.9 0.00 0.00 0.00 49 1014.3
20260510161559 12 0 0.0 12.9 0.00 0.00 0.00 47 1014.4
20260510161057 12 0 0.0 4.8 0.00 0.00 0.00 49 1014.5
20260510160559 12 0 0.0 3.2 0.00 0.00 0.00 51 1014.5
20260510160101 12 0 0.0 6.4 0.00 0.00 0.00 55 1014.4
20260510155556 12 0 0.0 6.4 0.00 0.00 0.00 51 1014.4
20260510155056 11 0 0.0 6.4 0.00 0.00 0.00 52 1014.5
20260510154557 12 0 0.0 4.8 0.00 0.00 0.00 54 1014.5
20260510154057 11 0 0.0 4.8 0.00 0.00 0.00 52 1014.4
20260510153557 12 0 0.0 3.2 0.00 0.00 0.00 56 1014.5
20260510153115 11 0 0.0 1.6 0.00 0.00 0.00 54 1014.4
20260510152557 11 0 0.0 1.6 0.00 0.00 0.00 58 1014.3
20260510152058 11 0 0.0 4.8 0.00 0.00 0.00 62 1014.4
20260510151556 11 0 0.0 4.8 0.00 0.00 0.00 59 1014.3
20260510151057 10 0 0.0 6.4 0.00 0.00 0.00 56 1014.2
20260510150600 11 0 1.6 6.4 0.00 0.00 0.00 56 1014.2
20260510150123 11 329 1.6 6.4 0.00 0.00 0.00 55 1014.1
20260510145558 11 0 0.0 4.8 0.00 0.00 0.00 59 1014.1
20260510145057 10 263 0.0 4.8 0.00 0.00 0.00 58 1014.0
20260510144618 10 0 0.0 4.8 0.00 0.00 0.00 56 1014.0
20260510144100 11 0 0.0 4.8 0.00 0.00 0.00 59 1013.9
20260510143557 11 0 0.0 4.8 0.00 0.00 0.00 57 1013.7
20260510143058 11 0 0.0 4.8 0.00 0.00 0.00 62 1013.8
20260510142556 10 0 0.0 3.2 0.00 0.00 0.00 65 1013.6
20260510142056 10 0 0.0 0.0 0.00 0.00 0.00 70 1013.7
20260510141555 10 0 0.0 0.0 0.00 0.00 0.00 75 1013.8
20260510141056 9 0 0.0 0.0 0.00 0.00 0.00 72 1013.6
20260510140556 9 0 0.0 1.6 0.00 0.00 0.00 76 1013.5
20260510140056 8 0 0.0 1.6 0.00 0.00 0.00 77 1013.5
20260510135557 8 0 0.0 1.6 0.00 0.00 0.00 77 1013.5
20260510135056 8 0 0.0 0.0 0.00 0.00 0.00 77 1013.5
20260510134655 8 0 0.0 0.0 0.00 0.00 0.00 74 1013.4
20260510134056 8 0 0.0 8.0 0.00 0.00 0.00 75 1013.4
20260510133557 8 0 0.0 8.0 0.00 0.00 0.00 79 1013.4
20260510133121 8 0 0.0 8.0 0.00 0.00 0.00 77 1013.4
20260510132557 8 0 0.0 3.2 0.00 0.00 0.00 80 1013.3
20260510132059 -17 0 0.0 0.0 0.00 0.00 0.00 1013.5
20260510131601 -17 0.0 0.0 0.00 0.00 0.00 1013.5
20260510131056 -17 0.0 0.0 0.00 0.00 0.00 1013.4
20260510130557 -17 0.0 0.0 0.00 0.00 0.00 1013.3
20260510130324 -17 0.0 0.0 0.00 0.00 0.00 1013.3
20260510125558 -17 0.0 0.0 0.00 0.00 0.00 1013.5
20260510125056 -17 0.0 0.0 0.00 0.00 0.00 1013.4
20260510124600 -17 0.0 0.0 0.00 0.00 0.00 1013.3
20260510124057 -17 0.0 0.0 0.00 0.00 0.00 1013.4
20260510123555 -17 0.0 0.0 0.00 0.00 0.00 1013.2
20260510123056 -17 0.0 0.0 0.00 0.00 0.00 1013.1
20260510122556 -17 0.0 0.0 0.00 0.00 0.00 1012.9
20260510122057 -17 0.0 0.0 0.00 0.00 0.00 1013.0
20260510121748 -17 0.0 0.0 0.00 0.00 0.00 1012.9
20260510121717 -17 0.0 0.0 0.00 0.00 0.00 1012.9
20260510121102 -17 0.0 0.0 0.00 0.00 0.00 1012.8
20260510120557 -17 0.0 0.0 0.00 0.00 0.00 1012.8
20260510120307 -17 0.0 0.0 0.00 0.00 0.00 1012.8
20260510115557 -17 0.0 0.0 0.00 0.00 0.00 1012.7
20260510115056 -17 0.0 0.0 0.00 0.00 0.00 1012.6
20260510114618 -17 0.0 0.0 0.00 0.00 0.00 1012.3
20260510114056 -17 0.0 0.0 0.00 0.00 0.00 1012.2
20260510113556 -17 0.0 0.0 0.00 0.00 0.00 1012.1
20260510113101 -17 0.0 0.0 0.00 0.00 0.00 1012.0
20260510112557 -17 0.0 0.0 0.00 0.00 0.00 1011.9
20260510112057 -17 0.0 0.0 0.00 0.00 0.00 1011.7
20260510111612 -17 0.0 0.0 0.00 0.00 0.00 1011.5
20260510111056 -17 0.0 0.0 0.00 0.00 0.00 1011.3
20260510110556 -17 0.0 0.0 0.00 0.00 0.00 1011.2
20260510110056 -17 0.0 0.0 0.00 0.00 0.00 1011.2
20260510105557 -17 0.0 0.0 0.00 0.00 0.00 1011.0
20260510105057 -17 0.0 0.0 0.00 0.00 0.00 1010.9
20260510104620 -17 0.0 0.0 0.00 0.00 0.00 1010.7
20260510104057 -17 0.0 0.0 0.00 0.00 0.00 1010.7
20260510103557 -17 0.0 0.0 0.00 0.00 0.00 1010.6
20260510103055 -17 0.0 0.0 0.00 0.00 0.00 1010.4
20260510102557 -17 0.0 0.0 0.00 0.00 0.00 1010.1
20260510102058 -17 0.0 0.0 0.00 0.00 0.00 1010.4
20260510101607 -17 0.0 0.0 0.00 0.00 0.00 1010.1
20260510101057 -17 0.0 0.0 0.00 0.00 0.00 1010.1
20260510100556 -17 0.0 0.0 0.00 0.00 0.00 1010.0
20260510095557 -17 0.0 0.0 0.00 0.00 0.00 1009.9
20260510095056 -17 0.0 0.0 0.00 0.00 0.00 1009.8
20260510094606 -17 0.0 0.0 0.00 0.00 0.00 1009.7
20260510094057 -17 0.0 0.0 0.00 0.00 0.00 1009.7
20260510093559 -17 0.0 0.0 0.00 0.00 0.00 1009.6
20260510093245 -17 0.0 0.0 0.00 0.00 0.00 1009.5
20260510093104 -17 0.0 0.0 0.00 0.00 0.00 1009.5
20260510092559 -17 0.0 0.0 0.00 0.00 0.00 1009.4
20260510092056 -17 0.0 0.0 0.00 0.00 0.00 1009.6
20260510091558 -17 0.0 0.0 0.00 0.00 0.00 1009.6
20260510091057 -17 0.0 0.0 0.00 0.00 0.00 1009.5
20260510090557 -17 0.0 0.0 0.00 0.00 0.00 1009.4
20260510090057 -17 0.0 0.0 0.00 0.00 0.00 1009.5
20260510085602 -17 0.0 0.0 0.00 0.00 0.00 1009.5
20260510085056 -17 0.0 0.0 0.00 0.00 0.00 1009.5
20260510084558 -17 0.0 0.0 0.00 0.00 0.00 1009.6
20260510084059 -17 0.0 0.0 0.00 0.00 0.00 1009.5
20260510083600 -17 0.0 0.0 0.00 0.00 0.00 1009.5
20260510083211 -17 0.0 0.0 0.00 0.00 0.00 1009.4
20260510082559 -17 0.0 0.0 0.00 0.00 0.00 1009.3
20260510082056 -17 0.0 0.0 0.00 0.00 0.00 1009.1
20260510081721 -17 0.0 0.0 0.00 0.00 0.00 1009.3
20260510081056 -17 0.0 0.0 0.00 0.00 0.00 1009.1
20260510080557 -17 0.0 0.0 0.00 0.00 0.00 1009.1
20260510075559 -17 0.0 0.0 0.00 0.00 0.00 1009.3
20260510075059 -17 0.0 0.0 0.00 0.00 0.00 1009.3
20260510074608 -17 0.0 0.0 0.00 0.00 0.00 1009.5
20260510074100 -17 0.0 0.0 0.00 0.00 0.00 1009.3
20260510073556 -17 0.0 0.0 0.00 0.00 0.00 1009.2
20260510073222 -17 0.0 0.0 0.00 0.00 0.00 1009.2
20260510073103 -17 0.0 0.0 0.00 0.00 0.00 1009.2
20260510072613 -17 0.0 0.0 0.00 0.00 0.00 1009.0
20260510072057 -17 0.0 0.0 0.00 0.00 0.00 1009.0
20260510071602 -17 0.0 0.0 0.00 0.00 0.00 1008.9
20260510071056 -17 0.0 0.0 0.00 0.00 0.00 1008.9
20260510070600 -17 0.0 0.0 0.00 0.00 0.00 1008.8
20260510070109 -17 0.0 0.0 0.00 0.00 0.00 1008.7
20260510065557 -17 0.0 0.0 0.00 0.00 0.00 1008.7
20260510065056 -17 0.0 0.0 0.00 0.00 0.00 1008.8
20260510064610 -17 0.0 0.0 0.00 0.00 0.00 1008.9
20260510064056 -17 0.0 0.0 0.00 0.00 0.00 1008.9
20260510063556 -17 0.0 0.0 0.00 0.00 0.00 1008.9
20260510063102 -17 0.0 0.0 0.00 0.00 0.00 1008.9
20260510062559 -17 0.0 0.0 0.00 0.00 0.00 1008.9
20260510062056 -17 0.0 0.0 0.00 0.00 0.00 1008.9
20260510061558 -17 0.0 0.0 0.00 0.00 0.00 1009.1
20260510061056 -17 0.0 0.0 0.00 0.00 0.00 1008.9
20260510060557 -17 0.0 0.0 0.00 0.00 0.00 1009.0
20260510055557 -17 0.0 0.0 0.00 0.00 0.00 1009.0
20260510055100 -17 0.0 0.0 0.00 0.00 0.00 1009.1
20260510054611 -17 0.0 0.0 0.00 0.00 0.00 1009.2
20260510054059 -17 0.0 0.0 0.00 0.00 0.00 1009.3
20260510053559 -17 0.0 0.0 0.00 0.00 0.00 1009.1
20260510053057 -17 0.0 0.0 0.00 0.00 0.00 1009.2
20260510052558 -17 0.0 0.0 0.00 0.00 0.00 1009.2
20260510052056 -17 0.0 0.0 0.00 0.00 0.00 1009.2
20260510051559 -17 0.0 0.0 0.00 0.00 0.00 1009.2
20260510051100 -17 0.0 0.0 0.00 0.00 0.00 1009.2
20260510050600 -17 0.0 0.0 0.00 0.00 0.00 1009.1
20260510050104 -17 0.0 0.0 0.00 0.00 0.00 1009.0
20260510045601 -17 0.0 0.0 0.00 0.00 0.00 1009.0
20260510045056 -17 0.0 0.0 0.00 0.00 0.00 1009.0
20260510044611 -17 0.0 0.0 0.00 0.00 0.00 1009.2
20260510044100 -17 0.0 0.0 0.00 0.00 0.00 1009.3
20260510043559 -17 0.0 0.0 0.00 0.00 0.00 1009.7
20260510043138 -17 0.0 0.0 0.00 0.00 0.00 1009.6
20260510042557 -17 0.0 0.0 0.00 0.00 0.00 1009.7
20260510042057 -17 0.0 0.0 0.00 0.00 0.00 1009.6
20260510041600 -17 0.0 0.0 0.00 0.00 0.00 1009.6
20260510041059 -17 0.0 0.0 0.00 0.00 0.00 1009.6
20260510040629 -17 0.0 0.0 0.00 0.00 0.00 1009.6
20260510040559 -17 0.0 0.0 0.00 0.00 0.00 1009.6
20260510040059 -17 0.0 0.0 0.00 0.00 0.00 1009.6
20260510035559 -17 0.0 0.0 0.00 0.00 0.00 1009.5
20260510035059 -17 0.0 0.0 0.00 0.00 0.00 1009.5
20260510034655 -17 0.0 0.0 0.00 0.00 0.00 1009.5
20260510034557 -17 0.0 0.0 0.00 0.00 0.00 1009.5
20260510034059 -17 0.0 0.0 0.00 0.00 0.00 1009.4
20260510033601 -17 0.0 0.0 0.00 0.00 0.00 1009.4
20260510033221 -17 0.0 0.0 0.00 0.00 0.00 1009.4
20260510032603 -17 0.0 0.0 0.00 0.00 0.00 1009.2
20260510032059 -17 0.0 0.0 0.00 0.00 0.00 1009.4
20260510031624 -17 0.0 0.0 0.00 0.00 0.00 1009.0
20260510031100 -17 0.0 0.0 0.00 0.00 0.00 1008.9
20260510030559 -17 0.0 0.0 0.00 0.00 0.00 1008.7
20260510030237 -17 0.0 0.0 0.00 0.00 0.00 1008.6
20260510025557 -17 0.0 0.0 0.00 0.00 0.00 1008.6
20260510025056 -17 0.0 0.0 0.00 0.00 0.00 1008.5
20260510024758 -17 0.0 0.0 0.00 0.00 0.00 1008.4
20260510024056 -17 0.0 0.0 0.00 0.00 0.00 1008.4
20260510023558 -17 0.0 0.0 0.00 0.00 0.00 1008.3
20260510023107 -17 0.0 0.0 0.00 0.00 0.00 1008.2
20260510022559 -17 0.0 0.0 0.00 0.00 0.00 1008.4
20260510022058 -17 0.0 0.0 0.00 0.00 0.00 1008.2
20260510021557 -17 0.0 0.0 0.00 0.00 0.00 1008.4
20260510021056 -17 0.0 0.0 0.00 0.00 0.00 1008.3
20260510020559 -17 0.0 0.0 0.00 0.00 0.00 1007.9
20260510020109 -17 0.0 0.0 0.00 0.00 0.00 1007.8
20260510015600 -17 0.0 0.0 0.00 0.00 0.00 1007.6
20260510015056 -17 0.0 0.0 0.00 0.00 0.00 1007.6
20260510014731 -17 0.0 0.0 0.00 0.00 0.00 1007.5
20260510014059 -17 0.0 0.0 0.00 0.00 0.00 1007.6
20260510013557 -17 0.0 0.0 0.00 0.00 0.00 1007.8
20260510013058 -17 0.0 0.0 0.00 0.00 0.00 1007.9
20260510012557 -17 0.0 0.0 0.00 0.00 0.00 1007.9
20260510012059 -17 0.0 0.0 0.00 0.00 0.00 1007.7
20260510011613 -17 0.0 0.0 0.00 0.00 0.00 1007.8
20260510011101 -17 0.0 0.0 0.00 0.00 0.00 1007.7
20260510010558 -17 0.0 0.0 0.00 0.00 0.00 1007.6
20260510010103 -17 0.0 0.0 0.00 0.00 0.00 1007.6
20260510005556 -17 0.0 0.0 0.00 0.00 0.00 1007.6
20260510005056 -17 0.0 0.0 0.00 0.00 0.00 1007.6
20260510004600 -17 0.0 0.0 0.00 0.00 0.00 1007.6
20260510004059 -17 0.0 0.0 0.00 0.00 0.00 1007.5
20260510003555 -17 0.0 0.0 0.00 0.00 0.00 1007.4
20260510003107 -17 0.0 0.0 0.00 0.00 0.00 1007.6
20260510002556 -17 0.0 0.0 0.00 0.00 0.00 1007.5
20260510002100 -17 0.0 0.0 0.00 0.00 0.00 1007.2
20260510001606 -17 0.0 0.0 0.00 0.00 0.00 1007.4
20260510001059 -17 0.0 0.0 0.00 0.00 0.00 1007.2
20260510000559 -17 0.0 0.0 0.00 0.00 0.00 1007.2
20260510000115 -17 0.0 0.0 0.00 0.00 0.00 1007.2
20260509235559 11 0.0 3.2 0.00 0.00 0.00 85 1007.1
20260509235056 11 0.0 3.2 0.00 0.00 0.00 85 1007.2
20260509234608 -17 0 0.0 1.6 0.00 0.00 0.00 85 1007.1
20260509234057 11 0 0.0 6.4 0.00 0.00 0.00 85 1007.1
20260509233601 11 0 0.0 6.4 0.00 0.00 0.00 85 1006.9
20260509233101 11 0 0.0 3.2 0.00 0.00 0.00 85 1007.2
20260509232558 11 0 0.0 8.0 0.00 0.00 0.00 84 1007.0
20260509232056 11 0 0.0 8.0 0.00 0.00 0.00 84 1007.2
20260509231557 11 207 0.0 1.6 0.00 0.00 0.00 84 1007.1
20260509231057 12 0 0.0 1.6 0.00 0.00 0.00 83 1007.1
20260509230555 12 0 0.0 0.0 0.00 0.00 0.00 83 1007.1
20260509230107 12 0 0.0 0.0 0.00 0.00 0.00 83 1007.0
20260509225555 12 0 0.0 1.6 0.00 0.00 0.00 84 1007.0
20260509225055 12 0 0.0 4.8 0.00 0.00 0.00 83 1007.1
20260509224602 12 0 0.0 4.8 0.00 0.00 0.00 83 1007.3
20260509224055 12 0 0.0 12.9 0.00 0.00 0.00 82 1007.2
20260509223556 12 0 0.0 12.9 0.00 0.00 0.00 82 1007.2
20260509223103 12 0 0.0 9.7 0.00 0.00 0.00 83 1007.2
20260509222602 12 196 1.6 4.8 0.00 0.00 0.00 83 1007.1
20260509222057 12 0 0.0 1.6 0.00 0.00 0.00 84 1007.0
20260509221557 11 0 0.0 6.4 0.00 0.00 0.00 84 1007.0
20260509221059 11 0 0.0 6.4 0.00 0.00 0.00 84 1007.0
20260509220556 11 0 0.0 3.2 0.00 0.00 0.00 85 1006.9
20260509215559 11 0 0.0 11.3 0.00 0.00 0.00 86 1006.9
20260509215058 11 207 0.0 11.3 0.00 0.00 0.00 85 1007.0
20260509214557 11 0 0.0 8.0 0.00 0.00 0.00 85 1007.2
20260509214055 11 0 0.0 6.4 0.00 0.00 0.00 85 1007.3
20260509213558 11 220 0.0 8.0 0.00 0.00 0.00 85 1007.3
20260509213107 11 0 0.0 8.0 0.00 0.00 0.00 85 1007.4
20260509212556 11 0 0.0 6.4 0.00 0.00 0.00 85 1007.2
20260509212056 11 0 0.0 3.2 0.00 0.00 0.00 85 1007.3
20260509211604 11 0 0.0 3.2 0.00 0.00 0.00 85 1007.2
20260509211056 11 188 0.0 8.0 0.00 0.00 0.00 85 1007.4
20260509210555 11 0 0.0 8.0 0.00 0.00 0.00 85 1007.4
20260509210104 11 249 0.0 6.4 0.00 0.00 0.00 85 1007.4
20260509205559 11 0 0.0 6.4 0.00 0.00 0.00 85 1007.5
20260509205059 11 0 0.0 6.4 0.00 0.00 0.00 85 1007.5
20260509204604 11 0 0.0 3.2 0.00 0.00 0.00 85 1007.6
20260509204100 11 0 0.0 1.6 0.00 0.00 0.00 85 1007.6
20260509203558 11 0 0.0 1.6 0.00 0.00 0.00 86 1007.6
20260509203140 11 0 0.0 11.3 0.00 0.00 0.00 85 1007.7
20260509202555 11 0 0.0 11.3 0.00 0.00 0.00 85 1007.8
20260509202056 11 0 0.0 4.8 0.00 0.00 0.00 85 1007.9
20260509201612 11 0 0.0 4.8 0.00 0.00 0.00 85 1007.9
20260509201056 11 0 0.0 3.2 0.00 0.00 0.00 85 1007.9
20260509200559 11 0 0.0 3.2 0.00 0.00 0.00 85 1008.1
20260509200058 11 0 0.0 3.2 0.00 0.00 0.00 84 1008.0
20260509195600 11 0 0.0 1.6 0.00 0.00 0.00 84 1008.0
20260509195056 11 0 0.0 1.6 0.00 0.00 0.00 84 1008.0
20260509194719 11 0 0.0 3.2 0.00 0.00 0.00 84 1008.0